User: anonymous   Login
Location: Melita
(38.4566°N, 122.6369°W)
Time: 12:06:55
(UTC+00:00)
Language:

ATLAS 2AS CENTAUR R/B - Orbit

View from above orbital plane
View from above orbital plane
View from above satellite
View from above satellite

Ground track
Ground track

The orbit data is extracted from the following two-line orbital elements,

1 28096U 03054B   20086.86362727 0.00000000  00000-0  00000-0 0    07
2 28096  63.6722  15.8574 0236137 231.7075 128.2925 13.40856316    06
Epoch (UTC): 26 March 2020 20:43:37
Eccentricity: 0.0236137
inclination: 63.6722°
perigee height: 929 km
apogee height: 1283 km
right ascension of ascending node: 15.8574°
argument of perigee: 231.7075°
revolutions per day: 13.40856316
mean anomaly at epoch: 128.2925°
orbit number at epoch: 0

The dashed part of the orbit path shows where the satellite is in the earth's shadow,  

DLR